Station History

Weather Underground - logo

Station Historical Data
Daily Summary for February 21, 2018 Units:  English    Metric   Both
« Previous Day
Next Day »
Daily Weekly Monthly Yearly Custom
  High: Low: Average:
Temperature: 58.0 °F 29.9 °F 43.8 °F
Dew Point: 33.2 °F 21.5 °F 27.9 °F
Humidity: 89 % 26 % 58 %
Wind Speed: 4.6 mph 0.0 mph 1 mph
Wind Gust: 4.6 mph - -
Wind:- - WSW
Pressure: 30.23 in 30.16 in -
Precipitation: 0.00 in    
Historical Graphs
 
 
Tabular Data for February 21, 2018
Time Temperature Dew Point Pressure Wind Wind Speed Wind Gust Humidity Rainfall Rate (Hourly)
00:03 41.5 °F 29.8 °F 30.20 in Calm     63 % 0.00 in
00:08 41.3 °F 30.0 °F 30.20 in Calm     64 % 0.00 in
00:13 41.2 °F 29.9 °F 30.20 in Calm     64 % 0.00 in
00:18 41.1 °F 29.8 °F 30.19 in Calm     64 % 0.00 in
00:23 41.0 °F 30.1 °F 30.19 in Calm     65 % 0.00 in
00:28 41.0 °F 30.1 °F 30.19 in Calm     65 % 0.00 in
00:33 41.3 °F 30.4 °F 30.19 in Calm     65 % 0.00 in
00:38 41.3 °F 31.9 °F 30.19 in Calm     69 % 0.00 in
00:43 41.0 °F 32.3 °F 30.19 in Calm     71 % 0.00 in
00:48 40.7 °F 32.4 °F 30.19 in Calm     72 % 0.00 in
00:53 40.5 °F 32.5 °F 30.19 in Calm     73 % 0.00 in
00:58 40.3 °F 32.7 °F 30.19 in Calm     74 % 0.00 in
01:03 40.1 °F 32.8 °F 30.19 in Calm     75 % 0.00 in
01:08 39.8 °F 33.2 °F 30.19 in Calm     77 % 0.00 in
01:13 39.5 °F 32.9 °F 30.19 in Calm     77 % 0.00 in
01:18 39.1 °F 32.5 °F 30.18 in Calm     77 % 0.00 in
01:23 38.8 °F 32.5 °F 30.18 in Calm     78 % 0.00 in
01:29 38.4 °F 32.5 °F 30.18 in Calm     79 % 0.00 in
01:34 38.1 °F 32.8 °F 30.18 in Calm     81 % 0.00 in
01:39 37.5 °F 32.2 °F 30.18 in Calm     81 % 0.00 in
01:43 37.1 °F 32.4 °F 30.18 in Calm     83 % 0.00 in
01:49 37.0 °F 32.6 °F 30.18 in Calm     84 % 0.00 in
01:54 36.8 °F 32.4 °F 30.18 in Calm     84 % 0.00 in
01:59 36.6 °F 32.2 °F 30.18 in Calm     84 % 0.00 in
02:04 36.3 °F 31.9 °F 30.18 in Calm     84 % 0.00 in
02:09 36.1 °F 31.7 °F 30.18 in Calm     84 % 0.00 in
02:14 36.0 °F 31.6 °F 30.19 in Calm     84 % 0.00 in
02:19 35.9 °F 31.2 °F 30.18 in Calm     83 % 0.00 in
02:24 35.7 °F 30.7 °F 30.18 in Calm     82 % 0.00 in
02:29 35.6 °F 30.6 °F 30.18 in Calm     82 % 0.00 in
02:34 35.2 °F 30.6 °F 30.18 in ESE 1.2 mph   83 % 0.00 in
02:39 35.2 °F 30.6 °F 30.18 in Calm     83 % 0.00 in
02:44 35.4 °F 30.5 °F 30.18 in Calm     82 % 0.00 in
02:49 35.3 °F 30.1 °F 30.18 in Calm     81 % 0.00 in
02:54 34.9 °F 29.7 °F 30.17 in Calm     81 % 0.00 in
02:59 34.5 °F 29.3 °F 30.17 in Calm     81 % 0.00 in
03:04 34.2 °F 29.0 °F 30.17 in Calm     81 % 0.00 in
03:09 34.2 °F 29.3 °F 30.17 in ESE 1.0 mph   82 % 0.00 in
03:14 34.3 °F 29.1 °F 30.17 in Calm     81 % 0.00 in
03:19 34.3 °F 29.1 °F 30.17 in Calm     81 % 0.00 in
03:24 34.3 °F 28.8 °F 30.17 in Calm     80 % 0.00 in
03:29 34.1 °F 28.6 °F 30.17 in Calm     80 % 0.00 in
03:34 33.9 °F 28.4 °F 30.17 in Calm     80 % 0.00 in
03:39 33.7 °F 28.2 °F 30.17 in Calm     80 % 0.00 in
03:44 33.5 °F 28.3 °F 30.17 in Calm     81 % 0.00 in
03:49 33.3 °F 28.1 °F 30.17 in Calm     81 % 0.00 in
03:54 33.2 °F 28.0 °F 30.17 in Calm     81 % 0.00 in
03:59 32.9 °F 28.0 °F 30.17 in Calm     82 % 0.00 in
04:04 32.7 °F 28.1 °F 30.18 in Calm     83 % 0.00 in
04:09 32.8 °F 28.2 °F 30.17 in Calm     83 % 0.00 in
04:14 32.7 °F 27.8 °F 30.17 in Calm     82 % 0.00 in
04:19 32.7 °F 27.8 °F 30.18 in Calm     82 % 0.00 in
04:24 32.6 °F 27.7 °F 30.18 in Calm     82 % 0.00 in
04:29 32.6 °F 27.7 °F 30.18 in Calm     82 % 0.00 in
04:34 32.5 °F 27.9 °F 30.18 in Calm     83 % 0.00 in
04:39 32.3 °F 27.7 °F 30.18 in Calm     83 % 0.00 in
04:44 32.1 °F 27.5 °F 30.18 in Calm     83 % 0.00 in
04:49 32.2 °F 28.2 °F 30.18 in Calm     85 % 0.00 in
04:54 32.2 °F 27.9 °F 30.18 in Calm     84 % 0.00 in
04:59 32.1 °F 27.5 °F 30.18 in Calm     83 % 0.00 in
05:05 32.2 °F 27.9 °F 30.18 in Calm     84 % 0.00 in
05:10 32.3 °F 27.7 °F 30.19 in Calm     83 % 0.00 in
05:15 32.5 °F 27.6 °F 30.19 in Calm     82 % 0.00 in
05:20 32.5 °F 27.6 °F 30.19 in Calm     82 % 0.00 in
05:25 32.5 °F 27.6 °F 30.19 in Calm     82 % 0.00 in
05:30 32.4 °F 27.5 °F 30.19 in Calm     82 % 0.00 in
05:35 32.4 °F 27.5 °F 30.19 in Calm     82 % 0.00 in
05:40 32.5 °F 27.6 °F 30.20 in Calm     82 % 0.00 in
05:45 32.5 °F 27.3 °F 30.19 in Calm     81 % 0.00 in
05:50 32.5 °F 27.3 °F 30.19 in Calm     81 % 0.00 in
05:55 32.3 °F 27.1 °F 30.19 in Calm     81 % 0.00 in
06:00 32.1 °F 26.9 °F 30.19 in Calm     81 % 0.00 in
06:05 31.8 °F 26.6 °F 30.20 in Calm     81 % 0.00 in
06:10 31.8 °F 26.9 °F 30.20 in Calm     82 % 0.00 in
06:15 32.1 °F 27.2 °F 30.20 in Calm     82 % 0.00 in
06:20 32.0 °F 27.1 °F 30.20 in Calm     82 % 0.00 in
06:25 31.7 °F 27.1 °F 30.20 in Calm     83 % 0.00 in
06:30 31.3 °F 27.0 °F 30.21 in Calm     84 % 0.00 in
06:35 31.0 °F 27.0 °F 30.21 in Calm     85 % 0.00 in
06:40 30.7 °F 27.0 °F 30.21 in Calm     86 % 0.00 in
06:45 30.4 °F 26.7 °F 30.22 in Calm     86 % 0.00 in
06:50 30.2 °F 26.8 °F 30.22 in Calm     87 % 0.00 in
06:55 30.0 °F 26.6 °F 30.22 in Calm     87 % 0.00 in
07:00 29.9 °F 26.5 °F 30.22 in Calm     87 % 0.00 in
07:05 30.0 °F 26.9 °F 30.22 in Calm     88 % 0.00 in
07:10 30.1 °F 27.0 °F 30.22 in Calm     88 % 0.00 in
07:15 30.2 °F 27.3 °F 30.22 in Calm     89 % 0.00 in
07:20 30.5 °F 27.6 °F 30.22 in Calm     89 % 0.00 in
07:25 31.2 °F 28.1 °F 30.22 in Calm     88 % 0.00 in
07:30 31.9 °F 28.5 °F 30.22 in Calm     87 % 0.00 in
07:35 32.5 °F 28.5 °F 30.22 in Calm     85 % 0.00 in
07:40 33.2 °F 28.9 °F 30.22 in Calm     84 % 0.00 in
07:45 34.6 °F 30.3 °F 30.22 in SE 1.0 mph 1.0 mph 84 % 0.00 in
07:50 36.0 °F 31.0 °F 30.22 in Calm     82 % 0.00 in
07:55 37.2 °F 31.6 °F 30.22 in ESE 1.2 mph 1.2 mph 80 % 0.00 in
08:00 38.1 °F 32.2 °F 30.22 in Calm     79 % 0.00 in
08:05 38.9 °F 32.0 °F 30.22 in Calm     76 % 0.00 in
08:10 39.4 °F 32.5 °F 30.22 in Calm     76 % 0.00 in
08:15 40.5 °F 32.9 °F 30.22 in Calm     74 % 0.00 in
08:20 41.2 °F 32.2 °F 30.22 in SSE 1.2 mph 1.2 mph 70 % 0.00 in
08:25 41.7 °F 31.9 °F 30.22 in SE 1.2 mph 1.2 mph 68 % 0.00 in
08:30 42.2 °F 30.9 °F 30.22 in SE 3.5 mph 3.5 mph 64 % 0.00 in
08:35 42.8 °F 30.7 °F 30.22 in South 2.3 mph 2.3 mph 62 % 0.00 in
08:40 44.0 °F 31.8 °F 30.22 in SSW 2.3 mph 2.3 mph 62 % 0.00 in
08:45 44.7 °F 29.5 °F 30.22 in SSE 2.3 mph 2.3 mph 55 % 0.00 in
08:50 45.5 °F 28.9 °F 30.22 in SE 3.5 mph 3.5 mph 52 % 0.00 in
08:55 46.1 °F 28.5 °F 30.22 in Calm   0.5 mph 50 % 0.00 in
09:00 46.4 °F 27.8 °F 30.22 in NE 1.2 mph 1.2 mph 48 % 0.00 in
09:05 46.7 °F 28.5 °F 30.22 in SSE 3.5 mph 3.5 mph 49 % 0.00 in
09:10 47.1 °F 28.4 °F 30.22 in NNW 2.3 mph 2.3 mph 48 % 0.00 in
09:15 47.5 °F 28.8 °F 30.22 in Calm   0.2 mph 48 % 0.00 in
09:20 47.6 °F 28.3 °F 30.22 in SSE 3.5 mph 3.5 mph 47 % 0.00 in
09:25 48.0 °F 29.2 °F 30.22 in SSW 2.3 mph 2.3 mph 48 % 0.00 in
09:30 48.0 °F 28.7 °F 30.22 in NNW 2.3 mph 2.3 mph 47 % 0.00 in
09:35 48.1 °F 28.8 °F 30.22 in SSE 3.5 mph 3.5 mph 47 % 0.00 in
09:40 48.8 °F 28.9 °F 30.22 in SSE 2.3 mph 2.3 mph 46 % 0.00 in
09:45 49.3 °F 28.3 °F 30.22 in ESE 3.5 mph 3.5 mph 44 % 0.00 in
09:50 49.8 °F 28.2 °F 30.22 in South 2.3 mph 2.3 mph 43 % 0.00 in
09:56 50.3 °F 28.1 °F 30.22 in SSE 3.5 mph 3.5 mph 42 % 0.00 in
10:01 50.6 °F 29.5 °F 30.22 in SSW 3.5 mph 3.5 mph 44 % 0.00 in
10:06 50.0 °F 28.4 °F 30.22 in South 3.0 mph 3.0 mph 43 % 0.00 in
10:11 50.1 °F 27.9 °F 30.22 in North 1.2 mph 1.2 mph 42 % 0.00 in
10:16 50.6 °F 28.3 °F 30.22 in SSE 3.5 mph 3.5 mph 42 % 0.00 in
10:21 51.2 °F 29.4 °F 30.23 in WNW 2.3 mph 2.3 mph 43 % 0.00 in
10:26 51.7 °F 29.9 °F 30.22 in NW 2.3 mph 2.3 mph 43 % 0.00 in
10:31 52.3 °F 29.9 °F 30.22 in South 4.6 mph 4.6 mph 42 % 0.00 in
10:36 52.4 °F 28.8 °F 30.22 in SSW 1.2 mph 1.2 mph 40 % 0.00 in
10:41 52.6 °F 30.1 °F 30.22 in NNW 1.2 mph 1.2 mph 42 % 0.00 in
10:46 53.0 °F 29.9 °F 30.22 in NNW 3.5 mph 3.5 mph 41 % 0.00 in
10:51 52.8 °F 30.3 °F 30.22 in NW 1.2 mph 1.2 mph 42 % 0.00 in
10:56 52.8 °F 29.1 °F 30.23 in SSE 3.5 mph 3.5 mph 40 % 0.00 in
11:01 53.3 °F 30.8 °F 30.22 in SSE 3.5 mph 3.5 mph 42 % 0.00 in
11:06 53.3 °F 28.9 °F 30.22 in NNW 1.2 mph 1.2 mph 39 % 0.00 in
11:11 53.4 °F 29.7 °F 30.22 in South 3.5 mph 3.5 mph 40 % 0.00 in
11:16 53.3 °F 28.9 °F 30.22 in WSW 3.5 mph 3.5 mph 39 % 0.00 in
11:21 53.0 °F 28.7 °F 30.22 in NW 3.5 mph 3.5 mph 39 % 0.00 in
11:26 53.3 °F 30.2 °F 30.22 in SSE 2.3 mph 2.3 mph 41 % 0.00 in
11:31 53.5 °F 29.1 °F 30.22 in NW 2.3 mph 2.3 mph 39 % 0.00 in
11:36 53.3 °F 29.6 °F 30.21 in ESE 3.5 mph 3.5 mph 40 % 0.00 in
11:41 53.6 °F 29.2 °F 30.21 in South 3.5 mph 3.5 mph 39 % 0.00 in
11:46 54.8 °F 29.7 °F 30.21 in SSE 1.2 mph 1.2 mph 38 % 0.00 in
11:51 55.2 °F 28.7 °F 30.21 in West 1.2 mph   36 % 0.00 in
11:56 55.0 °F 28.5 °F 30.21 in NNW 1.0 mph 1.0 mph 36 % 0.00 in
12:01 55.2 °F 29.4 °F 30.20 in NW 4.6 mph 4.6 mph 37 % 0.00 in
12:06 55.8 °F 29.9 °F 30.20 in SE 2.3 mph 2.3 mph 37 % 0.00 in
12:11 56.1 °F 27.4 °F 30.20 in WNW 3.5 mph 3.5 mph 33 % 0.00 in
12:16 55.6 °F 26.2 °F 30.20 in NW 3.5 mph 3.5 mph 32 % 0.00 in
12:21 55.2 °F 26.6 °F 30.20 in NW 4.6 mph 4.6 mph 33 % 0.00 in
12:26 55.3 °F 25.9 °F 30.20 in West 3.5 mph 3.5 mph 32 % 0.00 in
12:31 55.6 °F 26.9 °F 30.19 in West 2.3 mph 2.3 mph 33 % 0.00 in
12:36 56.1 °F 28.1 °F 30.19 in Calm   0.1 mph 34 % 0.00 in
12:42 56.9 °F 27.3 °F 30.19 in NW 1.2 mph 1.2 mph 32 % 0.00 in
12:46 56.6 °F 26.3 °F 30.19 in NNW 4.0 mph 4.0 mph 31 % 0.00 in
12:52 56.1 °F 25.8 °F 30.19 in WNW 3.5 mph 3.5 mph 31 % 0.00 in
12:57 55.9 °F 25.7 °F 30.19 in WNW 3.5 mph 3.5 mph 31 % 0.00 in
13:02 56.0 °F 25.8 °F 30.18 in NW 3.5 mph 3.5 mph 31 % 0.00 in
13:07 55.9 °F 24.1 °F 30.18 in ESE 2.3 mph 2.3 mph 29 % 0.00 in
13:12 56.0 °F 25.8 °F 30.18 in WNW 1.2 mph 1.2 mph 31 % 0.00 in
13:17 56.1 °F 25.8 °F 30.18 in NW 4.6 mph 4.6 mph 31 % 0.00 in
13:22 56.2 °F 26.7 °F 30.18 in NW 2.3 mph 2.3 mph 32 % 0.00 in
13:27 56.2 °F 25.1 °F 30.18 in West 4.0 mph 4.0 mph 30 % 0.00 in
13:32 56.6 °F 26.3 °F 30.18 in NW 2.3 mph   31 % 0.00 in
13:37 56.7 °F 24.8 °F 30.18 in SSE 2.3 mph 2.3 mph 29 % 0.00 in
13:42 56.6 °F 23.0 °F 30.18 in West 3.5 mph 3.5 mph 27 % 0.00 in
13:47 56.7 °F 24.8 °F 30.18 in NW 3.5 mph 3.5 mph 29 % 0.00 in
13:52 56.8 °F 24.8 °F 30.17 in NW 3.5 mph 3.5 mph 29 % 0.00 in
13:57 56.7 °F 24.8 °F 30.17 in NW 1.2 mph 1.2 mph 29 % 0.00 in
14:02 56.6 °F 23.0 °F 30.17 in South 3.5 mph 3.5 mph 27 % 0.00 in
14:07 57.0 °F 24.2 °F 30.17 in NW 2.3 mph 2.3 mph 28 % 0.00 in
14:12 57.4 °F 27.0 °F 30.17 in Calm     31 % 0.00 in
14:17 57.6 °F 23.8 °F 30.17 in NNW 2.3 mph   27 % 0.00 in
14:22 57.7 °F 25.6 °F 30.17 in SE 3.5 mph 3.5 mph 29 % 0.00 in
14:27 58.0 °F 25.0 °F 30.17 in South 1.2 mph 1.7 mph 28 % 0.00 in
14:32 57.9 °F 25.0 °F 30.17 in NW 2.0 mph 2.0 mph 28 % 0.00 in
14:37 57.7 °F 23.9 °F 30.17 in North 3.5 mph 3.5 mph 27 % 0.00 in
14:42 57.5 °F 24.6 °F 30.17 in WSW 2.3 mph 2.3 mph 28 % 0.00 in
14:47 57.4 °F 25.4 °F 30.17 in West 3.5 mph 3.5 mph 29 % 0.00 in
14:52 57.2 °F 25.2 °F 30.17 in North 4.0 mph 4.0 mph 29 % 0.00 in
14:57 57.0 °F 25.0 °F 30.17 in NNW 2.3 mph 2.3 mph 29 % 0.00 in
15:02 57.0 °F 24.2 °F 30.17 in WSW 3.5 mph 3.5 mph 28 % 0.00 in
15:07 56.9 °F 24.9 °F 30.17 in NNW 3.5 mph 3.5 mph 29 % 0.00 in
15:13 56.9 °F 23.2 °F 30.17 in WNW 3.5 mph 3.5 mph 27 % 0.00 in
15:18 56.6 °F 22.1 °F 30.16 in NW 3.5 mph 3.5 mph 26 % 0.00 in
15:23 56.5 °F 23.7 °F 30.16 in NW 3.5 mph 3.5 mph 28 % 0.00 in
15:28 56.6 °F 23.8 °F 30.16 in SW 2.3 mph   28 % 0.00 in
15:33 56.8 °F 24.8 °F 30.16 in NW 1.2 mph 1.2 mph 29 % 0.00 in
15:38 56.8 °F 22.2 °F 30.16 in NNW 1.2 mph 1.2 mph 26 % 0.00 in
15:43 56.5 °F 22.9 °F 30.16 in NW 2.3 mph 2.3 mph 27 % 0.00 in
15:48 56.2 °F 23.5 °F 30.16 in NW 3.5 mph 3.5 mph 28 % 0.00 in
15:53 56.0 °F 22.4 °F 30.16 in NW 1.2 mph   27 % 0.00 in
15:57 55.9 °F 21.5 °F 30.16 in NW 2.3 mph 2.3 mph 26 % 0.00 in
16:02 55.9 °F 22.4 °F 30.16 in NW 3.5 mph 3.5 mph 27 % 0.00 in
16:08 55.7 °F 22.2 °F 30.16 in WNW 2.3 mph 2.3 mph 27 % 0.00 in
16:13 55.7 °F 22.2 °F 30.16 in NW 1.2 mph 1.2 mph 27 % 0.00 in
16:18 55.6 °F 23.0 °F 30.16 in NW 2.0 mph 2.0 mph 28 % 0.00 in
16:23 55.4 °F 22.8 °F 30.16 in North 3.5 mph 3.5 mph 28 % 0.00 in
16:28 55.3 °F 21.8 °F 30.16 in WNW 2.3 mph 2.3 mph 27 % 0.00 in
16:33 55.3 °F 22.7 °F 30.16 in NW 3.5 mph 3.5 mph 28 % 0.00 in
16:38 55.3 °F 21.8 °F 30.16 in NW 3.5 mph 3.5 mph 27 % 0.00 in
16:43 55.1 °F 21.7 °F 30.16 in NW 2.3 mph 2.3 mph 27 % 0.00 in
16:48 55.1 °F 22.5 °F 30.16 in NW 1.2 mph 1.2 mph 28 % 0.00 in
16:53 55.0 °F 22.4 °F 30.16 in North 2.3 mph 2.3 mph 28 % 0.00 in
16:58 54.7 °F 22.2 °F 30.16 in NW 2.3 mph 2.3 mph 28 % 0.00 in
17:03 54.5 °F 23.7 °F 30.17 in WNW 1.2 mph 1.2 mph 30 % 0.00 in
17:08 54.3 °F 22.7 °F 30.17 in WNW 1.2 mph 1.2 mph 29 % 0.00 in
17:13 54.1 °F 23.3 °F 30.17 in WNW 1.2 mph 1.2 mph 30 % 0.00 in
17:18 53.7 °F 24.5 °F 30.17 in WNW 1.2 mph   32 % 0.00 in
17:23 53.4 °F 24.2 °F 30.17 in NW 1.2 mph 1.2 mph 32 % 0.00 in
17:28 53.1 °F 24.0 °F 30.17 in Calm     32 % 0.00 in
17:33 52.7 °F 23.6 °F 30.17 in Calm     32 % 0.00 in
17:38 52.5 °F 23.5 °F 30.17 in Calm     32 % 0.00 in
17:43 52.1 °F 24.6 °F 30.17 in Calm     34 % 0.00 in
17:48 51.6 °F 24.1 °F 30.17 in Calm     34 % 0.00 in
17:53 51.1 °F 25.7 °F 30.17 in Calm     37 % 0.00 in
17:58 50.4 °F 26.3 °F 30.17 in Calm     39 % 0.00 in
18:03 49.8 °F 24.5 °F 30.17 in Calm     37 % 0.00 in
18:08 49.3 °F 25.4 °F 30.17 in Calm     39 % 0.00 in
18:13 48.7 °F 25.4 °F 30.17 in Calm     40 % 0.00 in
18:18 48.1 °F 27.7 °F 30.17 in Calm     45 % 0.00 in
18:23 47.5 °F 28.3 °F 30.17 in Calm     47 % 0.00 in
18:28 46.9 °F 28.7 °F 30.17 in Calm     49 % 0.00 in
18:33 46.3 °F 28.7 °F 30.17 in Calm     50 % 0.00 in
18:38 45.7 °F 28.6 °F 30.17 in Calm     51 % 0.00 in
18:43 45.1 °F 27.6 °F 30.17 in Calm     50 % 0.00 in
18:48 44.7 °F 30.0 °F 30.17 in Calm     56 % 0.00 in
18:53 44.2 °F 29.9 °F 30.17 in Calm     57 % 0.00 in
18:58 44.0 °F 31.8 °F 30.18 in Calm     62 % 0.00 in
19:03 43.9 °F 31.7 °F 30.18 in Calm     62 % 0.00 in
19:08 43.7 °F 30.7 °F 30.18 in SSE 1.2 mph   60 % 0.00 in
19:13 43.1 °F 30.1 °F 30.18 in Calm     60 % 0.00 in
19:18 43.0 °F 30.5 °F 30.18 in Calm     61 % 0.00 in
19:23 43.1 °F 31.0 °F 30.18 in Calm     62 % 0.00 in
19:28 43.1 °F 30.6 °F 30.18 in Calm     61 % 0.00 in
19:33 42.9 °F 30.0 °F 30.18 in Calm     60 % 0.00 in
19:38 42.8 °F 29.5 °F 30.18 in Calm     59 % 0.00 in
19:43 42.7 °F 29.8 °F 30.18 in Calm     60 % 0.00 in
19:48 42.7 °F 28.5 °F 30.18 in Calm     57 % 0.00 in
19:53 43.1 °F 28.9 °F 30.18 in Calm     57 % 0.00 in
19:58 43.1 °F 28.9 °F 30.18 in Calm     57 % 0.00 in
20:03 43.2 °F 27.7 °F 30.18 in Calm     54 % 0.00 in
20:08 43.4 °F 26.9 °F 30.18 in East 1.2 mph   52 % 0.00 in
20:13 43.5 °F 26.6 °F 30.18 in East 1.2 mph   51 % 0.00 in
20:18 43.8 °F 26.3 °F 30.17 in Calm     50 % 0.00 in
20:23 44.1 °F 26.1 °F 30.17 in Calm     49 % 0.00 in
20:28 43.9 °F 25.5 °F 30.17 in Calm     48 % 0.00 in
20:33 43.6 °F 25.7 °F 30.17 in Calm     49 % 0.00 in
20:38 43.1 °F 25.2 °F 30.17 in Calm     49 % 0.00 in
20:43 42.8 °F 27.3 °F 30.18 in Calm     54 % 0.00 in
20:48 41.9 °F 29.4 °F 30.18 in Calm     61 % 0.00 in
20:53 40.9 °F 29.3 °F 30.18 in Calm     63 % 0.00 in
20:58 40.1 °F 29.6 °F 30.19 in Calm     66 % 0.00 in
21:03 39.4 °F 29.7 °F 30.19 in Calm     68 % 0.00 in
21:08 38.8 °F 29.1 °F 30.19 in Calm     68 % 0.00 in
21:13 38.2 °F 28.6 °F 30.19 in Calm     68 % 0.00 in
21:18 38.1 °F 29.5 °F 30.20 in Calm     71 % 0.00 in
21:23 38.1 °F 29.9 °F 30.20 in Calm     72 % 0.00 in
21:28 38.2 °F 29.6 °F 30.20 in Calm     71 % 0.00 in
21:33 38.3 °F 29.4 °F 30.20 in Calm     70 % 0.00 in
21:38 38.4 °F 28.8 °F 30.19 in Calm     68 % 0.00 in
21:43 38.3 °F 29.7 °F 30.20 in Calm     71 % 0.00 in
21:48 37.9 °F 29.7 °F 30.20 in Calm     72 % 0.00 in
21:53 37.5 °F 29.6 °F 30.20 in Calm     73 % 0.00 in
21:58 37.6 °F 29.4 °F 30.21 in Calm     72 % 0.00 in
22:03 37.7 °F 28.8 °F 30.20 in Calm     70 % 0.00 in
22:08 37.9 °F 28.6 °F 30.21 in Calm     69 % 0.00 in
22:09 37.9 °F 28.6 °F 30.21 in Calm     69 % 0.00 in
22:14 37.8 °F 28.9 °F 30.21 in Calm     70 % 0.00 in
22:19 37.8 °F 29.2 °F 30.21 in Calm     71 % 0.00 in
22:24 37.7 °F 29.1 °F 30.21 in Calm     71 % 0.00 in
22:29 37.4 °F 29.2 °F 30.21 in Calm     72 % 0.00 in
22:34 37.3 °F 29.4 °F 30.21 in Calm     73 % 0.00 in
22:39 37.2 °F 28.0 °F 30.21 in ESE 1.2 mph   69 % 0.00 in
22:44 37.6 °F 27.3 °F 30.22 in Calm     66 % 0.00 in
22:49 37.7 °F 27.0 °F 30.22 in Calm     65 % 0.00 in
22:54 37.5 °F 27.5 °F 30.22 in Calm     67 % 0.00 in
22:59 37.1 °F 27.2 °F 30.22 in Calm     67 % 0.00 in
23:04 37.0 °F 27.1 °F 30.22 in Calm     67 % 0.00 in
23:09 36.8 °F 28.3 °F 30.22 in Calm     71 % 0.00 in
23:14 36.4 °F 28.6 °F 30.22 in Calm     73 % 0.00 in
23:19 36.0 °F 28.5 °F 30.22 in Calm     74 % 0.00 in
23:24 35.6 °F 28.8 °F 30.22 in Calm     76 % 0.00 in
23:29 35.4 °F 28.6 °F 30.22 in Calm     76 % 0.00 in
23:34 35.3 °F 28.5 °F 30.22 in Calm     76 % 0.00 in
23:39 35.5 °F 28.7 °F 30.22 in Calm     76 % 0.00 in
23:44 35.7 °F 28.2 °F 30.23 in Calm     74 % 0.00 in
23:49 35.6 °F 27.8 °F 30.23 in Calm     73 % 0.00 in
23:54 35.5 °F 27.4 °F 30.23 in Calm     72 % 0.00 in
23:59 35.4 °F 28.3 °F 30.23 in Calm     75 % 0.00 in
Park Place, Exeter, Tulare County, California, USA
Compliments of Weather Underground - 2.75 mb